2008 YB3

Japanese version
Home page
Updated on February 2, 2012

---------------------------------------------------------------------

* Profile

Discovery Date December 18, 2008
Magnitude 18.1 mag
Discoverer Siding Spring Survey

* Pictures

* Orbital Elements

The following orbital elements are taken from MPO198964

Epoch 2011 Aug. 27.0 TT = JDT 2455800.5                 MPC
M   4.42376              (2000.0)            P               Q
n   0.02476829     Peri.  330.51657     -0.45089756     +0.02028674
a  11.6557100      Node   112.48992     +0.88221497     +0.16201301
e   0.4435004      Incl.  105.02848     -0.13560284     +0.98658007
P  39.8            H    9.5           G   0.15           U   1
From 171 observations at 2 oppositions, 2008-2011, mean residual 0".35.

* Magnitudes Graph

        H = 9.0  G = 0.15

---------------------------------------------------------------------

The orbital elements are published at the MPC Ephemerides and Orbital Elements.
The magnitudes graphs are made with Comet for Windows.

---------------------------------------------------------------------

Copyright(C) Seiichi Yoshida (comet@aerith.net). All rights reserved.